TimeCST,TemperatureF,Dew PointF,Humidity,Sea Level PressureIn,VisibilityMPH,Wind Direction,Wind SpeedMPH,Gust SpeedMPH,PrecipitationIn,Events,Conditions,WindDirDegrees,DateUTC
12:16 AM,-13.4,-18.6,77,30.19,10.0,Calm,Calm,-,N/A,,Clear,0,2013-12-31 06:16:00
12:36 AM,-14.6,-19.7,78,30.18,10.0,Calm,Calm,-,N/A,,Clear,0,2013-12-31 06:36:00
12:55 AM,-15.2,-20.6,77,30.19,10.0,West,3.5,-,N/A,,Clear,270,2013-12-31 06:55:00
1:16 AM,-12.1,-16.8,80,30.19,10.0,WSW,3.5,-,N/A,,Clear,250,2013-12-31 07:16:00
1:36 AM,-11.2,-15.9,80,30.19,10.0,West,3.5,-,N/A,,Clear,280,2013-12-31 07:36:00
1:55 AM,-11.2,-15.9,80,30.19,10.0,West,5.8,-,N/A,,Clear,270,2013-12-31 07:55:00
2:16 AM,-11.0,-15.9,79,30.21,10.0,West,6.9,-,N/A,,Clear,270,2013-12-31 08:16:00
2:36 AM,-9.9,-14.6,80,30.21,10.0,West,6.9,-,N/A,,Clear,280,2013-12-31 08:36:00
2:55 AM,-10.5,-15.3,79,30.21,10.0,WNW,5.8,-,N/A,,Clear,300,2013-12-31 08:55:00
3:16 AM,-11.4,-16.2,79,30.22,10.0,West,5.8,-,N/A,,Clear,270,2013-12-31 09:16:00
3:35 AM,-10.5,-15.3,79,30.23,10.0,West,4.6,-,N/A,,Clear,270,2013-12-31 09:35:00
3:56 AM,-12.5,-17.5,78,30.22,10.0,West,3.5,-,N/A,,Clear,270,2013-12-31 09:56:00
4:16 AM,-12.3,-17.1,79,30.22,10.0,WNW,3.5,-,N/A,,Clear,290,2013-12-31 10:16:00
4:35 AM,-11.7,-16.2,80,30.22,10.0,WNW,3.5,-,N/A,,Mostly Cloudy,300,2013-12-31 10:35:00
4:56 AM,-10.5,-15.2,80,30.22,10.0,Calm,Calm,-,N/A,,Mostly Cloudy,0,2013-12-31 10:56:00
5:16 AM,-10.8,-15.9,78,30.22,10.0,Calm,Calm,-,N/A,,Scattered Clouds,0,2013-12-31 11:16:00
5:35 AM,-11.9,-17.0,78,30.22,10.0,Calm,Calm,-,N/A,,Mostly Cloudy,0,2013-12-31 11:35:00
5:56 AM,-10.8,-15.7,79,30.23,10.0,Calm,Calm,-,N/A,,Overcast,0,2013-12-31 11:56:00
6:16 AM,-11.2,-15.9,80,30.22,10.0,Calm,Calm,-,N/A,,Mostly Cloudy,0,2013-12-31 12:16:00
6:35 AM,-11.0,-15.9,79,30.23,10.0,Calm,Calm,-,N/A,,Mostly Cloudy,0,2013-12-31 12:35:00
6:56 AM,-11.2,-15.9,80,30.23,10.0,NW,3.5,-,N/A,,Mostly Cloudy,310,2013-12-31 12:56:00
7:16 AM,-10.7,-15.7,78,30.26,10.0,WSW,3.5,-,N/A,,Overcast,240,2013-12-31 13:16:00
7:35 AM,-11.0,-15.9,79,30.26,10.0,SSW,3.5,-,N/A,,Overcast,210,2013-12-31 13:35:00
7:56 AM,-11.2,-15.9,80,30.26,10.0,Calm,Calm,-,N/A,,Overcast,0,2013-12-31 13:56:00
8:15 AM,-10.1,-14.8,80,30.27,10.0,Calm,Calm,-,N/A,,Overcast,0,2013-12-31 14:15:00
8:36 AM,-9.0,-13.9,79,30.28,10.0,WSW,4.6,-,N/A,,Overcast,250,2013-12-31 14:36:00
8:56 AM,-8.5,-13.0,81,30.29,10.0,West,4.6,-,N/A,,Overcast,260,2013-12-31 14:56:00
9:15 AM,-7.6,-12.1,81,30.30,10.0,West,4.6,-,N/A,,Mostly Cloudy,260,2013-12-31 15:15:00
9:36 AM,-6.9,-11.2,81,30.30,10.0,West,4.6,-,N/A,,Scattered Clouds,280,2013-12-31 15:36:00
9:55 AM,-6.5,-11.0,81,30.31,10.0,West,5.8,-,N/A,,Mostly Cloudy,260,2013-12-31 15:55:00
10:16 AM,-5.8,-10.3,81,30.32,10.0,NW,3.5,-,N/A,,Overcast,320,2013-12-31 16:16:00
10:36 AM,-5.4,-9.6,82,30.32,10.0,NNW,3.5,-,N/A,,Overcast,330,2013-12-31 16:36:00
10:55 AM,-5.3,-9.6,82,30.33,10.0,NNW,4.6,-,N/A,,Overcast,330,2013-12-31 16:55:00
11:16 AM,-5.1,-9.4,82,30.33,10.0,NNW,5.8,-,N/A,,Overcast,330,2013-12-31 17:16:00
11:36 AM,-4.9,-9.4,81,30.32,10.0,NNW,3.5,-,N/A,,Overcast,330,2013-12-31 17:36:00
11:55 AM,-4.7,-9.8,79,30.32,10.0,NNW,4.6,-,N/A,,Overcast,330,2013-12-31 17:55:00
12:16 PM,-4.9,-11.2,74,30.32,10.0,NNW,3.5,-,N/A,,Mostly Cloudy,330,2013-12-31 18:16:00
12:36 PM,-4.5,-11.4,72,30.31,10.0,NW,3.5,-,N/A,,Overcast,320,2013-12-31 18:36:00
12:55 PM,-4.4,-11.7,71,30.31,10.0,NNW,3.5,-,N/A,,Overcast,330,2013-12-31 18:55:00
1:16 PM,-4.4,-13.0,66,30.31,10.0,North,6.9,-,N/A,,Mostly Cloudy,350,2013-12-31 19:16:00
1:36 PM,-4.4,-11.9,70,30.31,10.0,North,5.8,-,N/A,,Scattered Clouds,350,2013-12-31 19:36:00
1:55 PM,-4.0,-11.6,70,30.31,10.0,North,4.6,-,N/A,,Clear,350,2013-12-31 19:55:00
2:16 PM,-4.5,-12.3,69,30.31,10.0,North,6.9,-,N/A,,Clear,350,2013-12-31 20:16:00
2:36 PM,-4.7,-12.5,69,30.31,10.0,NNW,5.8,-,N/A,,Clear,340,2013-12-31 20:36:00
2:55 PM,-4.9,-13.0,68,30.32,10.0,NNW,4.6,-,N/A,,Clear,340,2013-12-31 20:55:00
3:16 PM,-5.3,-13.0,69,30.32,10.0,North,4.6,-,N/A,,Clear,350,2013-12-31 21:16:00
3:36 PM,-5.1,-13.4,67,30.32,10.0,North,4.6,-,N/A,,Clear,350,2013-12-31 21:36:00
3:55 PM,-5.3,-14.1,66,30.32,10.0,North,4.6,-,N/A,,Clear,350,2013-12-31 21:55:00
4:16 PM,-5.6,-14.1,67,30.33,10.0,Calm,Calm,-,N/A,,Clear,0,2013-12-31 22:16:00
4:35 PM,-5.8,-14.6,66,30.33,10.0,North,4.6,-,N/A,,Clear,350,2013-12-31 22:35:00
4:56 PM,-6.7,-15.3,66,30.34,10.0,NNW,5.8,-,N/A,,Clear,340,2013-12-31 22:56:00
5:16 PM,-8.0,-16.1,68,30.34,10.0,NNW,5.8,-,N/A,,Clear,340,2013-12-31 23:16:00
5:35 PM,-8.5,-16.6,68,30.35,10.0,NNW,5.8,-,N/A,,Clear,340,2013-12-31 23:35:00
5:56 PM,-9.0,-16.6,69,30.35,10.0,NNW,4.6,-,N/A,,Clear,340,2013-12-31 23:56:00
6:16 PM,-9.6,-16.8,71,30.36,10.0,NNW,3.5,-,N/A,,Clear,340,2014-01-01 00:16:00
6:35 PM,-11.2,-17.9,72,30.37,10.0,Calm,Calm,-,N/A,,Clear,0,2014-01-01 00:35:00
6:56 PM,-11.2,-17.1,75,30.38,10.0,Calm,Calm,-,N/A,,Clear,0,2014-01-01 00:56:00
7:16 PM,-10.7,-17.0,74,30.38,10.0,Calm,Calm,-,N/A,,Clear,0,2014-01-01 01:16:00
7:36 PM,-11.7,-18.0,74,30.38,10.0,Calm,Calm,-,N/A,,Clear,0,2014-01-01 01:36:00
7:56 PM,-13.4,-19.1,75,30.38,10.0,Calm,Calm,-,N/A,,Clear,0,2014-01-01 01:56:00
8:15 PM,-13.4,-18.4,78,30.38,10.0,Calm,Calm,-,N/A,,Clear,0,2014-01-01 02:15:00
8:36 PM,-14.3,-19.1,79,30.38,10.0,Calm,Calm,-,N/A,,Clear,0,2014-01-01 02:36:00
8:56 PM,-15.0,-19.5,80,30.38,10.0,Calm,Calm,-,N/A,,Clear,0,2014-01-01 02:56:00
9:15 PM,-15.9,-21.1,77,30.38,10.0,NNE,3.5,-,N/A,,Clear,20,2014-01-01 03:15:00
9:36 PM,-15.9,-20.9,78,30.39,10.0,Calm,Calm,-,N/A,,Clear,0,2014-01-01 03:36:00
9:56 PM,-15.7,-20.4,79,30.39,10.0,Calm,Calm,-,N/A,,Scattered Clouds,0,2014-01-01 03:56:00
10:16 PM,-15.2,-20.2,78,30.39,10.0,Calm,Calm,-,N/A,,Mostly Cloudy,0,2014-01-01 04:16:00
10:36 PM,-13.2,-18.2,78,30.39,10.0,Calm,Calm,-,N/A,,Overcast,0,2014-01-01 04:36:00
10:56 PM,-10.8,-15.9,78,30.39,10.0,NNE,4.6,-,N/A,,Overcast,30,2014-01-01 04:56:00
11:16 PM,-10.5,-16.1,76,30.39,10.0,NE,3.5,-,N/A,,Overcast,40,2014-01-01 05:16:00
11:36 PM,-10.3,-16.6,74,30.40,10.0,NE,3.5,-,N/A,,Overcast,40,2014-01-01 05:36:00
11:56 PM,-9.6,-16.4,72,30.41,10.0,NNE,6.9,-,N/A,,Overcast,30,2014-01-01 05:56:00